Regional Weather Roundup
Issued by NWS

Home | Current Version | Previous Version | Graphics & Text | Print | Product List | Glossary On
Versions: 1 2 3 4 5 6 7 8 9 10 11 12 13 14 15 16 17 18 19 20 21 22 23 24 25 26 27 28 29 30 31 32 33 34 35 36 37 38 39 40 41 42 43 44 45 46 47 48 49 50
000
ASUS43 KDMX 282103
RWRIA

WEATHER ROUNDUP FOR IOWA
NATIONAL WEATHER SERVICE DES MOINES IA
400 PM CDT THU APR 28 2016

NOTE: "FAIR" INDICATES FEW OR NO CLOUDS BELOW 12,000 FEET WITH NO
SIGNIFICANT WEATHER AND/OR OBSTRUCTIONS TO VISIBILITY.

* - THESE STATIONS ARE NOT NWS STATIONS...THUS NOT UNDER NWS
QUALITY CONTROL.  THEY ALSO DO NOT REPORT WEATHER SUCH
AS PRECIPITATION OR FOG.

IAZ001>003-012>014-020>022-031>034-043>046-282200-
   NORTHWEST IOWA

CITY           SKY/WX    TMP DP  RH WIND       PRES   REMARKS
CARROLL *      CLOUDY    48  45  87 NW17      29.95S
CHEROKEE *     CLOUDY    45  41  87 N9        29.99R
DENISON *      CLOUDY    46  43  87 NW13      29.96R
LE MARS *      CLOUDY    43  39  87 N9        30.01R
ORANGE CITY *  CLOUDY    43  39  87 N9        29.99R
SHELDON *      CLOUDY    43  39  87 N12       29.98R
SIOUX CITY     CLOUDY    46  39  76 N14       30.01R
SPENCER        CLOUDY    43  37  79 NE12      29.98R
STORM LAKE *   PTSUNNY   45  41  87 N13       29.97S
$$

IAZ055>058-069>071-079>083-090>094-282200-
   SOUTHWEST IOWA

CITY           SKY/WX    TMP DP  RH WIND       PRES   REMARKS
ATLANTIC *     CLOUDY    50  43  76 NW14      29.96R
AUDUBON *      PTSUNNY   48  45  87 NW12G17   29.96S
CLARINDA *       N/A    N/A N/A N/A MISG        N/A
COUNCIL BLFS *   N/A     48  43  81 NW13      29.98R
CRESTON *      CLOUDY    50  46  87 W13G20    29.96R
HARLAN  *      CLOUDY    48  43  81 NW15      30.00R
LAMONI         CLOUDY    52  46  80 W18       29.95R
RED OAK *      CLOUDY    50  45  81 NW9G17    29.98R
SHENANDOAH *   CLOUDY    52  46  82 W9        30.00R
$$

IAZ047>049-059>061-072>074-084-282200-
   CENTRAL IOWA

CITY           SKY/WX    TMP DP  RH WIND       PRES   REMARKS
AMES           CLOUDY    55  47  74 N9        29.90R
ANKENY *       DRIZZLE   54  50  87 NW6       29.90S
BOONE *        LGT RAIN  52  48  87 NW10      29.90R
CHARITON *     CLOUDY    54  46  76 W14G21    29.92R
DES MOINES     CLOUDY    58  48  69 W17       29.90R
GRINNELL*      CLOUDY    57  46  67 W12       29.90R
KNOXVILLE *    CLOUDY    55  46  71 W14       29.89S
MARSHALLTOWN   LGT RAIN  50  48  93 NW12      29.90R FOG
NEWTON *       CLOUDY    55  48  76 W10       29.90R
PELLA *        PTSUNNY   55  47  76 W6        29.91S
$$

IAZ004>006-015-016-023>025-035-036-282200-
   NORTH CENTRAL IOWA

CITY           SKY/WX    TMP DP  RH WIND       PRES   REMARKS
ALGONA *       CLOUDY    45  41  87 NE10      29.96R
CLARION *      CLOUDY    46  45  93 NE10      29.94R
ESTHERVILLE    LGT RAIN  41  38  89 N12       29.98R
FORT DODGE *   CLOUDY    46  41  81 N6        29.95R
MASON CITY     CLOUDY    45  42  89 NE13      29.96R
FOREST CITY *  CLOUDY    43  41  93 NE7       29.96R
WEBSTER CITY * CLOUDY    48  46  93 N13       29.92R
IOWA FALLS *   CLOUDY    48  46  93 N6        29.93R
$$

IAZ007>011-017>019-026>030-037>042-050>054-066-282200-
   NORTHEAST IOWA

CITY           SKY/WX    TMP DP  RH WIND       PRES   REMARKS
CEDAR RAPIDS   CLOUDY    52  49  89 SW9       29.88R
CHARLES CITY * CLOUDY    45  45 100 NE12      29.94S FOG
CLINTON *      LGT RAIN  50  49  96 E7        29.91R VSB 1
DECORAH *      CLOUDY    43  41  93 NE13      29.94R
DUBUQUE        LGT RAIN  45  44  97 NE7       29.92R FOG
MONTICELLO *   PTSUNNY   48  46  93 NE8       29.90S FOG
OELWEIN *      CLOUDY    46  46 100 NE13      29.93R FOG
WATERLOO       CLOUDY    49  46  90 NE10      29.91R FOG
$$

IAZ064-065-067-068-078-282200-
   EAST CENTRAL IOWA

CITY           SKY/WX    TMP DP  RH WIND       PRES   REMARKS
DAVENPORT      CLOUDY    52  49  89 CALM      29.90S FOG
IOWA CITY      CLOUDY    55  47  74 NW9       29.91R
MT. PLEASANT * PTSUNNY   63  48  59 W14       29.90S
MUSCATINE *    CLOUDY    57  46  67 SW5       29.90S
QUAD CITIES    CLOUDY    55  49  80 CALM      29.89S HAZE
$$

IAZ062-063-075>077-085>089-095>099-282200-
   SOUTHEAST IOWA

CITY           SKY/WX    TMP DP  RH WIND       PRES   REMARKS
BURLINGTON     CLOUDY    58  48  69 W14       29.89S
FAIRFIELD *    CLOUDY    57  46  67 W13       29.90R
FORT MADISON * CLOUDY    57  46  67 W15G22    29.91R
KEOKUK *       CLOUDY    59  48  67 W13       29.90S
OSKALOOSA *    CLOUDY    57  46  67 W10       29.90S
OTTUMWA        CLOUDY    55  47  74 W13G18    29.90S
WASHINGTON *   PTSUNNY   57  50  77 W10G17    29.91R
$$

ABBREVIATIONS USED IN REMARKS
   TC - TEMPERATURES IN CELSIUS
  WCI - WIND CHILL INDEX
   HX - HEAT INDEX
  VSB - VISIBILITY
$$




USA.gov is the U.S. government's official web portal to all federal, state and local government web resources and services.